This is the latest recevied weather packets stored in our database for station/object HS1IFU-13. If no packets are shown the sender has not sent any weather packets the latest 10 day(s).
| Time | Temp. | Humidity | Pressure | Rain* | Wind** | Luminosity | Snow |
|---|---|---|---|---|---|---|---|
| 1778172167 | 27.22° C | 56% | 1008 hPa | - | - | 0 W/m² | - |
| 1778171810 | 27.78° C | 81% | 1009 hPa | - | - | 0 W/m² | - |
| 1778171651 | 27.22° C | 81% | 1009 hPa | - | - | 0 W/m² | - |
| 1778171463 | 26.67° C | 78% | 1009 hPa | - | - | 0 W/m² | - |
| 1778171155 | 27.22° C | 58% | 1009 hPa | - | - | 0 W/m² | - |
| 1778170799 | 27.78° C | 81% | 1009 hPa | - | - | 0 W/m² | - |
| 1778170465 | 26.67° C | 82% | 1009 hPa | - | - | 0 W/m² | - |
| 1778169451 | 23.33° C | 46% | 1009 hPa | - | - | 0 W/m² | - |
| 1778168929 | 23.33° C | 45% | 1009 hPa | - | - | 0 W/m² | - |
| 1778166282 | 23.89° C | 45% | 1009 hPa | - | - | 0 W/m² | - |
| 1778166124 | 23.89° C | 45% | 1009 hPa | - | - | 0 W/m² | - |
| 1778165516 | 23.89° C | 45% | 1009 hPa | - | - | 0 W/m² | - |
| 1778163909 | 24.44° C | 45% | 1009 hPa | - | - | 0 W/m² | - |
| 1778163691 | 24.44° C | 45% | 1009 hPa | - | - | 0 W/m² | - |
| 1778163407 | 24.44° C | 45% | 1009 hPa | - | - | 0 W/m² | - |
| 1778163038 | 24.44° C | 45% | 1009 hPa | - | - | 0 W/m² | - |
| 1778162483 | 24.44° C | 46% | 1009 hPa | - | - | 0 W/m² | - |
| 1778159036 | 28.89° C | 41% | 1007 hPa | - | - | 0 W/m² | - |
| 1778158521 | 30° C | 41% | 1007 hPa | - | - | 0 W/m² | - |
| 1778155093 | 38.89° C | 50% | 1006 hPa | - | - | 0 W/m² | - |
| 1778154877 | 38.89° C | 50% | 1006 hPa | - | - | 0 W/m² | - |
| 1778153485 | 37.78° C | 53% | 1006 hPa | - | - | 0 W/m² | - |
| 1778153163 | 37.78° C | 55% | 1006 hPa | - | - | 0 W/m² | - |
| 1778152313 | 34.44° C | 64% | 1006 hPa | - | - | 0 W/m² | - |
| 1778075747 | 25° C | 42% | 1007 hPa | - | - | 0 W/m² | - |
* Rain since midnight (hover to see other rain measurements)
** Current wind speed in m/s (hover to see current wind gust speed)